| time (UTC) | temp C | wind direction | speed KPH | gust KPH | rain 1hr cm | rain 24hr cm | rain mn cm | humidity % | barometer mb |
| 20260509093517 | -3 | 66 | 3.2 | 4.8 | 0.00 | 0.00 | 0.00 | 96 | 1007.9 |
| 20260509093015 | -3 | 64 | 1.6 | 3.2 | 0.00 | 0.00 | 0.00 | 96 | 1007.8 |
| 20260509092512 | -3 | 342 | 1.6 | 3.2 | 0.00 | 0.00 | 0.00 | 96 | 1007.6 |
| 20260509092011 | -3 | 77 | 1.6 | 3.2 | 0.00 | 0.00 | 0.00 | 96 | 1007.6 |
| 20260509091508 | -3 | 57 | 3.2 | 3.2 | 0.00 | 0.00 | 0.00 | 96 | 1007.7 |
| 20260509091004 | -3 | 0 | 0.0 | 3.2 | 0.00 | 0.00 | 0.00 | 96 | 1007.5 |
| 20260509090502 | -3 | 319 | 1.6 | 3.2 | 0.00 | 0.00 | 0.00 | 96 | 1007.6 |
| 20260509085959 | -3 | 312 | 3.2 | 3.2 | 0.00 | 0.00 | 0.00 | 96 | 1007.6 |
| 20260509085456 | -3 | 333 | 0.0 | 3.2 | 0.00 | 0.00 | 0.00 | 96 | 1007.5 |
| 20260509084952 | -3 | 62 | 1.6 | 4.8 | 0.00 | 0.00 | 0.00 | 96 | 1007.6 |
| 20260509084449 | -3 | 68 | 3.2 | 3.2 | 0.00 | 0.00 | 0.00 | 96 | 1007.6 |
| 20260509083947 | -3 | 38 | 1.6 | 3.2 | 0.00 | 0.00 | 0.00 | 96 | 1007.5 |
| 20260509083444 | -3 | 69 | 1.6 | 3.2 | 0.00 | 0.00 | 0.00 | 96 | 1007.7 |
| 20260509082940 | -3 | 77 | 0.0 | 3.2 | 0.00 | 0.00 | 0.00 | 96 | 1007.4 |
| 20260509082438 | -3 | 325 | 1.6 | 3.2 | 0.00 | 0.00 | 0.00 | 96 | 1007.5 |
| 20260509081935 | -3 | 319 | 1.6 | 3.2 | 0.00 | 0.00 | 0.00 | 96 | 1007.5 |
| 20260509081432 | -3 | 15 | 0.0 | 1.6 | 0.00 | 0.00 | 0.00 | 96 | 1007.5 |
| 20260509080929 | -3 | 326 | 0.0 | 1.6 | 0.00 | 0.00 | 0.00 | 96 | 1007.3 |
| 20260509080427 | -3 | 24 | 0.0 | 3.2 | 0.00 | 0.00 | 0.00 | 96 | 1007.4 |
| 20260509075925 | -3 | 15 | 0.0 | 3.2 | 0.00 | 0.00 | 0.00 | 96 | 1007.5 |
| 20260509075422 | -3 | 31 | 1.6 | 3.2 | 0.00 | 0.00 | 0.00 | 96 | 1007.5 |
| 20260509074919 | -3 | 64 | 3.2 | 3.2 | 0.00 | 0.00 | 0.00 | 96 | 1007.6 |
| 20260509074417 | -3 | 55 | 0.0 | 3.2 | 0.00 | 0.00 | 0.00 | 96 | 1007.7 |
| 20260509073913 | -3 | 58 | 3.2 | 3.2 | 0.00 | 0.00 | 0.00 | 96 | 1007.7 |
| 20260509073409 | -3 | 58 | 3.2 | 3.2 | 0.00 | 0.00 | 0.00 | 96 | 1007.4 |
| 20260509072906 | -3 | 296 | 0.0 | 1.6 | 0.00 | 0.00 | 0.00 | 95 | 1007.6 |
| 20260509072402 | -3 | 22 | 0.0 | 3.2 | 0.00 | 0.00 | 0.00 | 95 | 1007.6 |
| 20260509071859 | -3 | 69 | 3.2 | 3.2 | 0.00 | 0.00 | 0.00 | 95 | 1007.6 |
| 20260509071356 | -3 | 54 | 3.2 | 3.2 | 0.00 | 0.00 | 0.00 | 95 | 1007.6 |
| 20260509070854 | -3 | 48 | 3.2 | 3.2 | 0.00 | 0.00 | 0.00 | 95 | 1007.8 |
| 20260509070350 | -3 | 24 | 0.0 | 1.6 | 0.00 | 0.00 | 0.00 | 95 | 1007.6 |
| 20260509065846 | -3 | 57 | 3.2 | 3.2 | 0.00 | 0.00 | 0.00 | 95 | 1007.5 |
| 20260509065343 | -2 | 44 | 1.6 | 3.2 | 0.00 | 0.00 | 0.00 | 95 | 1007.6 |
| 20260509064839 | -2 | 38 | 3.2 | 3.2 | 0.00 | 0.00 | 0.00 | 95 | 1007.6 |
| 20260509064336 | -2 | 20 | 1.6 | 3.2 | 0.00 | 0.00 | 0.00 | 95 | 1007.6 |
| 20260509063834 | -2 | 45 | 1.6 | 3.2 | 0.00 | 0.00 | 0.00 | 95 | 1007.6 |
| 20260509063330 | -2 | 21 | 1.6 | 4.8 | 0.00 | 0.00 | 0.00 | 95 | 1007.6 |
| 20260509062827 | -2 | 28 | 1.6 | 3.2 | 0.00 | 0.00 | 0.00 | 95 | 1007.6 |
| 20260509062324 | -2 | 70 | 1.6 | 3.2 | 0.00 | 0.00 | 0.00 | 94 | 1007.7 |
| 20260509061821 | -2 | 114 | 0.0 | 4.8 | 0.00 | 0.00 | 0.00 | 94 | 1007.5 |
| 20260509061320 | -2 | 340 | 0.0 | 3.2 | 0.00 | 0.00 | 0.00 | 94 | 1007.7 |
| 20260509060816 | -2 | 299 | 0.0 | 1.6 | 0.00 | 0.00 | 0.00 | 94 | 1007.9 |
| 20260509060313 | -2 | 38 | 1.6 | 3.2 | 0.00 | 0.00 | 0.00 | 94 | 1007.6 |
| 20260509055808 | -2 | 17 | 1.6 | 4.8 | 0.00 | 0.00 | 0.00 | 94 | 1007.6 |
| 20260509055306 | -2 | 56 | 0.0 | 3.2 | 0.00 | 0.00 | 0.00 | 94 | 1007.6 |
| 20260509054801 | -2 | 67 | 3.2 | 3.2 | 0.00 | 0.00 | 0.00 | 94 | 1007.6 |
| 20260509054258 | -2 | 0 | 0.0 | 3.2 | 0.00 | 0.00 | 0.00 | 94 | 1007.5 |
| 20260509053756 | -2 | 332 | 0.0 | 3.2 | 0.00 | 0.00 | 0.00 | 94 | 1007.5 |
| 20260509053253 | -2 | 4 | 3.2 | 3.2 | 0.00 | 0.00 | 0.00 | 94 | 1007.5 |
| 20260509052751 | -2 | 28 | 3.2 | 3.2 | 0.00 | 0.00 | 0.00 | 94 | 1007.3 |
| 20260509052248 | -2 | 1 | 3.2 | 3.2 | 0.00 | 0.00 | 0.00 | 94 | 1007.3 |
| 20260509051746 | -2 | 305 | 3.2 | 3.2 | 0.00 | 0.00 | 0.00 | 93 | 1007.4 |
| 20260509051244 | -2 | 58 | 1.6 | 3.2 | 0.00 | 0.00 | 0.00 | 94 | 1007.3 |
| 20260509050740 | -2 | 58 | 0.0 | 1.6 | 0.00 | 0.00 | 0.00 | 94 | 1007.5 |
| 20260509050237 | -2 | 21 | 0.0 | 1.6 | 0.00 | 0.00 | 0.00 | 94 | 1007.2 |
| 20260509045734 | -2 | 19 | 0.0 | 1.6 | 0.00 | 0.00 | 0.00 | 94 | 1007.3 |
| 20260509045231 | -2 | 26 | 1.6 | 3.2 | 0.00 | 0.00 | 0.00 | 93 | 1007.2 |
| 20260509044728 | -2 | 57 | 1.6 | 3.2 | 0.00 | 0.00 | 0.00 | 93 | 1007.3 |
| 20260509044226 | -2 | 342 | 0.0 | 3.2 | 0.00 | 0.00 | 0.00 | 93 | 1007.4 |
| 20260509043722 | -2 | 279 | 0.0 | 3.2 | 0.00 | 0.00 | 0.00 | 93 | 1007.5 |
| 20260509043218 | -2 | 74 | 3.2 | 3.2 | 0.00 | 0.00 | 0.00 | 93 | 1007.4 |
| 20260509042714 | -2 | 27 | 0.0 | 3.2 | 0.00 | 0.00 | 0.00 | 93 | 1007.4 |
| 20260509042210 | -1 | 19 | 0.0 | 3.2 | 0.00 | 0.00 | 0.00 | 93 | 1007.2 |
| 20260509041707 | -2 | 11 | 0.0 | 1.6 | 0.00 | 0.00 | 0.00 | 93 | 1007.4 |
| 20260509041205 | -2 | 60 | 0.0 | 1.6 | 0.00 | 0.00 | 0.00 | 92 | 1007.2 |
| 20260509040703 | -1 | 69 | 0.0 | 1.6 | 0.00 | 0.00 | 0.00 | 92 | 1007.2 |
| 20260509040159 | -1 | 50 | 0.0 | 3.2 | 0.00 | 0.00 | 0.00 | 92 | 1007.5 |
| 20260509035656 | -1 | 28 | 0.0 | 3.2 | 0.00 | 0.00 | 0.00 | 92 | 1007.3 |
| 20260509035153 | -1 | 320 | 0.0 | 1.6 | 0.00 | 0.00 | 0.00 | 91 | 1007.2 |
| 20260509034651 | -1 | 55 | 1.6 | 3.2 | 0.00 | 0.00 | 0.00 | 91 | 1007.3 |
| 20260509034147 | -1 | 23 | 0.0 | 3.2 | 0.00 | 0.00 | 0.00 | 91 | 1007.1 |
| 20260509033645 | -1 | 5 | 1.6 | 3.2 | 0.00 | 0.00 | 0.00 | 90 | 1007.0 |
| 20260509033141 | -1 | 33 | 1.6 | 3.2 | 0.00 | 0.00 | 0.00 | 90 | 1007.1 |
| 20260509032639 | -1 | 62 | 0.0 | 1.6 | 0.00 | 0.00 | 0.00 | 90 | 1007.1 |
| 20260509032136 | -1 | 349 | 1.6 | 3.2 | 0.00 | 0.00 | 0.00 | 89 | 1006.9 |
| 20260509031633 | -1 | 322 | 3.2 | 3.2 | 0.00 | 0.00 | 0.00 | 90 | 1006.8 |
| 20260509031130 | -1 | 338 | 0.0 | 3.2 | 0.00 | 0.00 | 0.00 | 90 | 1007.0 |
| 20260509030629 | -1 | 22 | 1.6 | 1.6 | 0.00 | 0.00 | 0.00 | 90 | 1006.8 |
| 20260509030126 | -1 | 332 | 0.0 | 1.6 | 0.00 | 0.00 | 0.00 | 89 | 1006.6 |
| 20260509025622 | -1 | 3 | 0.0 | 1.6 | 0.00 | 0.00 | 0.00 | 89 | 1006.8 |
| 20260509025117 | 0 | 13 | 0.0 | 1.6 | 0.00 | 0.00 | 0.00 | 89 | 1006.8 |
| 20260509024613 | 0 | 353 | 1.6 | 3.2 | 0.00 | 0.00 | 0.00 | 89 | 1006.8 |
| 20260509024109 | 0 | 13 | 1.6 | 3.2 | 0.00 | 0.00 | 0.00 | 88 | 1006.5 |
| 20260509023608 | 0 | 32 | 0.0 | 1.6 | 0.00 | 0.00 | 0.00 | 88 | 1006.5 |
| 20260509023104 | 0 | 39 | 0.0 | 1.6 | 0.00 | 0.00 | 0.00 | 87 | 1006.6 |
| 20260509022600 | 0 | 51 | 1.6 | 1.6 | 0.00 | 0.00 | 0.00 | 87 | 1006.5 |
| 20260509022058 | 0 | 30 | 1.6 | 3.2 | 0.00 | 0.00 | 0.00 | 87 | 1006.5 |
| 20260509021555 | 0 | 1 | 0.0 | 3.2 | 0.00 | 0.00 | 0.00 | 86 | 1006.5 |
| 20260509021052 | 0 | 42 | 1.6 | 3.2 | 0.00 | 0.00 | 0.00 | 85 | 1006.6 |
| 20260509020550 | 0 | 43 | 1.6 | 3.2 | 0.00 | 0.00 | 0.00 | 85 | 1006.8 |
| 20260509020047 | 0 | 51 | 1.6 | 3.2 | 0.00 | 0.00 | 0.00 | 84 | 1006.4 |
| 20260509015546 | 1 | 33 | 1.6 | 3.2 | 0.00 | 0.00 | 0.00 | 83 | 1006.3 |
| 20260509015043 | 1 | 22 | 1.6 | 3.2 | 0.00 | 0.00 | 0.00 | 84 | 1006.4 |
| 20260509014539 | 1 | 22 | 0.0 | 1.6 | 0.00 | 0.00 | 0.00 | 83 | 1006.2 |
| 20260509014036 | 1 | 32 | 0.0 | 1.6 | 0.00 | 0.00 | 0.00 | 82 | 1006.0 |
| 20260509013533 | 1 | 66 | 0.0 | 3.2 | 0.00 | 0.00 | 0.00 | 81 | 1006.0 |
| 20260509013028 | 1 | 315 | 0.0 | 1.6 | 0.00 | 0.00 | 0.00 | 83 | 1006.0 |
| 20260509012525 | 2 | 302 | 0.0 | 3.2 | 0.00 | 0.00 | 0.00 | 82 | 1005.8 |
| 20260509012022 | 2 | 346 | 0.0 | 3.2 | 0.00 | 0.00 | 0.00 | 80 | 1005.8 |
| 20260509011520 | 2 | 336 | 0.0 | 1.6 | 0.00 | 0.00 | 0.00 | 77 | 1005.8 |
| 20260509011017 | 2 | 0 | 0.0 | 3.2 | 0.00 | 0.00 | 0.00 | 76 | 1005.7 |
| 20260509010515 | 2 | 310 | 1.6 | 3.2 | 0.00 | 0.00 | 0.00 | 80 | 1005.7 |
| 20260509010011 | 2 | 336 | 0.0 | 1.6 | 0.00 | 0.00 | 0.00 | 81 | 1005.7 |
| 20260509005509 | 2 | 304 | 0.0 | 1.6 | 0.00 | 0.00 | 0.00 | 80 | 1005.5 |
| 20260509005009 | 3 | 55 | 0.0 | 1.6 | 0.00 | 0.00 | 0.00 | 74 | 1005.5 |
| 20260509004506 | 3 | 5 | 0.0 | 3.2 | 0.00 | 0.00 | 0.00 | 73 | 1005.5 |
| 20260509004003 | 3 | 294 | 0.0 | 3.2 | 0.00 | 0.00 | 0.00 | 73 | 1005.4 |
| 20260509003502 | 3 | 10 | 0.0 | 1.6 | 0.00 | 0.00 | 0.00 | 73 | 1005.4 |
| 20260509002958 | 3 | 39 | 1.6 | 3.2 | 0.00 | 0.00 | 0.00 | 75 | 1005.4 |
| 20260509002456 | 3 | 19 | 0.0 | 1.6 | 0.00 | 0.00 | 0.00 | 76 | 1005.2 |
| 20260509001953 | 3 | 19 | 1.6 | 1.6 | 0.00 | 0.00 | 0.00 | 77 | 1005.2 |
| 20260509001449 | 3 | 58 | 0.0 | 1.6 | 0.00 | 0.00 | 0.00 | 75 | 1005.1 |
| 20260509000946 | 4 | 22 | 0.0 | 1.6 | 0.00 | 0.00 | 0.00 | 73 | 1005.1 |
| 20260509000447 | 5 | 55 | 0.0 | 1.6 | 0.00 | 0.00 | 0.00 | 70 | 1004.9 |
| 20260508235940 | 5 | 76 | 0.0 | 1.6 | 0.00 | 0.00 | 0.00 | 65 | 1005.0 |
| 20260508235438 | 6 | 46 | 1.6 | 1.6 | 0.00 | 0.00 | 0.00 | 63 | 1005.0 |
| 20260508234934 | 6 | 76 | 3.2 | 3.2 | 0.00 | 0.00 | 0.00 | 62 | 1004.8 |
| 20260508234431 | 6 | 103 | 0.0 | 0.0 | 0.00 | 0.00 | 0.00 | 58 | 1004.8 |
| 20260508233929 | 7 | 72 | 3.2 | 3.2 | 0.00 | 0.00 | 0.00 | 54 | 1004.6 |
| 20260508233428 | 7 | 63 | 3.2 | 3.2 | 0.00 | 0.00 | 0.00 | 48 | 1004.7 |
| 20260508232925 | 8 | 38 | 3.2 | 3.2 | 0.00 | 0.00 | 0.00 | 47 | 1004.6 |
| 20260508232422 | 8 | 96 | 0.0 | 3.2 | 0.00 | 0.00 | 0.00 | 46 | 1004.7 |
| 20260508231919 | 8 | 269 | 0.0 | 3.2 | 0.00 | 0.00 | 0.00 | 46 | 1004.8 |
| 20260508231416 | 8 | 281 | 1.6 | 3.2 | 0.00 | 0.00 | 0.00 | 44 | 1004.6 |
| 20260508230913 | 8 | 346 | 0.0 | 4.8 | 0.00 | 0.00 | 0.00 | 42 | 1004.7 |
| 20260508230409 | 8 | 282 | 4.8 | 9.7 | 0.00 | 0.00 | 0.00 | 42 | 1004.6 |
| 20260508225906 | 8 | 320 | 11.3 | 11.3 | 0.00 | 0.00 | 0.00 | 41 | 1004.7 |
| 20260508225403 | 8 | 289 | 9.7 | 17.7 | 0.00 | 0.00 | 0.00 | 41 | 1004.7 |
| 20260508224901 | 8 | 293 | 8.0 | 9.7 | 0.00 | 0.00 | 0.00 | 42 | 1004.6 |
| 20260508224358 | 8 | 290 | 3.2 | 12.9 | 0.00 | 0.00 | 0.00 | 42 | 1004.6 |
| 20260508223856 | 8 | 274 | 6.4 | 17.7 | 0.00 | 0.00 | 0.00 | 42 | 1004.6 |
| 20260508223353 | 8 | 279 | 6.4 | 12.9 | 0.00 | 0.00 | 0.00 | 42 | 1004.7 |
| 20260508222851 | 8 | 261 | 8.0 | 12.9 | 0.00 | 0.00 | 0.00 | 41 | 1004.8 |
| 20260508222347 | 8 | 295 | 14.5 | 17.7 | 0.00 | 0.00 | 0.00 | 40 | 1004.5 |
| 20260508221844 | 8 | 271 | 11.3 | 17.7 | 0.00 | 0.00 | 0.00 | 41 | 1004.4 |
| 20260508221339 | 8 | 275 | 11.3 | 14.5 | 0.00 | 0.00 | 0.00 | 41 | 1004.4 |
| 20260508220836 | 9 | 254 | 6.4 | 8.0 | 0.00 | 0.00 | 0.00 | 42 | 1004.3 |
| 20260508220332 | 8 | 273 | 9.7 | 12.9 | 0.00 | 0.00 | 0.00 | 43 | 1004.4 |
| 20260508215829 | 8 | 275 | 12.9 | 19.3 | 0.00 | 0.00 | 0.00 | 42 | 1004.3 |
| 20260508215326 | 9 | 274 | 6.4 | 25.7 | 0.00 | 0.00 | 0.00 | 41 | 1004.2 |
| 20260508214823 | 9 | 289 | 0.0 | 16.1 | 0.00 | 0.00 | 0.00 | 41 | 1004.3 |
| 20260508214320 | 10 | 271 | 9.7 | 12.9 | 0.00 | 0.00 | 0.00 | 40 | 1004.2 |
| 20260508213816 | 9 | 282 | 4.8 | 17.7 | 0.00 | 0.00 | 0.00 | 40 | 1004.1 |
| 20260508213313 | 9 | 304 | 4.8 | 9.7 | 0.00 | 0.00 | 0.00 | 40 | 1004.1 |
| 20260508212810 | 9 | 288 | 9.7 | 12.9 | 0.00 | 0.00 | 0.00 | 40 | 1004.1 |
| 20260508212306 | 10 | 259 | 9.7 | 17.7 | 0.00 | 0.00 | 0.00 | 42 | 1004.2 |
| 20260508211801 | 10 | 281 | 9.7 | 12.9 | 0.00 | 0.00 | 0.00 | 39 | 1004.1 |
| 20260508211257 | 10 | 273 | 16.1 | 17.7 | 0.00 | 0.00 | 0.00 | 40 | 1004.1 |
| 20260508210755 | 10 | 291 | 11.3 | 17.7 | 0.00 | 0.00 | 0.00 | 40 | 1004.0 |
| 20260508210252 | 10 | 333 | 4.8 | 14.5 | 0.00 | 0.00 | 0.00 | 41 | 1004.1 |
| 20260508205749 | 10 | 320 | 9.7 | 20.9 | 0.00 | 0.00 | 0.00 | 43 | 1004.0 |
| 20260508205245 | 8 | 278 | 12.9 | 14.5 | 0.00 | 0.00 | 0.00 | 42 | 1003.9 |
| 20260508204742 | 8 | 247 | 17.7 | 19.3 | 0.00 | 0.00 | 0.00 | 42 | 1003.9 |
| 20260508204238 | 8 | 257 | 11.3 | 16.1 | 0.00 | 0.00 | 0.00 | 43 | 1003.9 |
| 20260508203734 | 8 | 300 | 8.0 | 19.3 | 0.00 | 0.00 | 0.00 | 42 | 1004.1 |
| 20260508203231 | 9 | 260 | 11.3 | 14.5 | 0.00 | 0.00 | 0.00 | 43 | 1003.7 |
| 20260508202726 | 10 | 298 | 17.7 | 24.1 | 0.00 | 0.00 | 0.00 | 41 | 1004.0 |
| 20260508202224 | 8 | 274 | 6.4 | 12.9 | 0.00 | 0.00 | 0.00 | 43 | 1003.9 |
| 20260508201721 | 9 | 297 | 11.3 | 24.1 | 0.00 | 0.00 | 0.00 | 42 | 1003.8 |
| 20260508201217 | 10 | 254 | 12.9 | 19.3 | 0.00 | 0.00 | 0.00 | 42 | 1003.8 |
| 20260508200714 | 10 | 245 | 12.9 | 27.4 | 0.00 | 0.00 | 0.00 | 42 | 1003.9 |
| 20260508200210 | 10 | 262 | 16.1 | 27.4 | 0.00 | 0.00 | 0.00 | 42 | 1004.0 |
| 20260508195707 | 10 | 28 | 1.6 | 14.5 | 0.00 | 0.00 | 0.00 | 40 | 1003.7 |
| 20260508195203 | 10 | 273 | 14.5 | 24.1 | 0.00 | 0.00 | 0.00 | 42 | 1004.0 |
| 20260508194700 | 10 | 233 | 4.8 | 24.1 | 0.00 | 0.00 | 0.00 | 42 | 1004.1 |
| 20260508194157 | 9 | 265 | 12.9 | 16.1 | 0.00 | 0.00 | 0.00 | 42 | 1004.1 |
| 20260508193654 | 9 | 332 | 6.4 | 32.2 | 0.00 | 0.00 | 0.00 | 45 | 1003.9 |
| 20260508193151 | 9 | 352 | 8.0 | 17.7 | 0.00 | 0.00 | 0.00 | 41 | 1004.0 |
| 20260508192647 | 9 | 292 | 12.9 | 16.1 | 0.00 | 0.00 | 0.00 | 43 | 1004.0 |
| 20260508192145 | 9 | 273 | 20.9 | 22.5 | 0.00 | 0.00 | 0.00 | 43 | 1004.0 |
| 20260508191642 | 9 | 287 | 4.8 | 17.7 | 0.00 | 0.00 | 0.00 | 44 | 1003.9 |
| 20260508191138 | 9 | 283 | 11.3 | 24.1 | 0.00 | 0.00 | 0.00 | 42 | 1003.9 |
| 20260508190635 | 9 | 265 | 22.5 | 27.4 | 0.00 | 0.00 | 0.00 | 42 | 1004.1 |
| 20260508190132 | 8 | 275 | 6.4 | 27.4 | 0.00 | 0.00 | 0.00 | 42 | 1004.0 |
| 20260508185629 | 8 | 252 | 17.7 | 19.3 | 0.00 | 0.00 | 0.00 | 43 | 1004.1 |
| 20260508185126 | 8 | 276 | 12.9 | 25.7 | 0.00 | 0.00 | 0.00 | 44 | 1004.0 |
| 20260508184623 | 8 | 279 | 11.3 | 33.8 | 0.00 | 0.00 | 0.00 | 43 | 1004.3 |
| 20260508184120 | 8 | 265 | 12.9 | 32.2 | 0.00 | 0.00 | 0.00 | 42 | 1004.2 |
| 20260508183617 | 8 | 252 | 11.3 | 16.1 | 0.00 | 0.00 | 0.00 | 44 | 1004.1 |
| 20260508183113 | 8 | 268 | 4.8 | 17.7 | 0.00 | 0.00 | 0.00 | 44 | 1004.2 |
| 20260508182609 | 8 | 3 | 6.4 | 19.3 | 0.00 | 0.00 | 0.00 | 43 | 1004.2 |
| 20260508182106 | 8 | 259 | 14.5 | 20.9 | 0.00 | 0.00 | 0.00 | 47 | 1004.2 |
| 20260508181607 | 8 | 280 | 9.7 | 25.7 | 0.00 | 0.00 | 0.00 | 45 | 1004.1 |
| 20260508181105 | 8 | 283 | 11.3 | 32.2 | 0.00 | 0.00 | 0.00 | 46 | 1004.3 |
| 20260508180601 | 8 | 308 | 6.4 | 24.1 | 0.00 | 0.00 | 0.00 | 43 | 1004.2 |
| 20260508180057 | 8 | 269 | 14.5 | 22.5 | 0.00 | 0.00 | 0.00 | 47 | 1004.1 |
| 20260508175554 | 7 | 251 | 12.9 | 24.1 | 0.00 | 0.00 | 0.00 | 47 | 1004.2 |
| 20260508175052 | 7 | 280 | 12.9 | 24.1 | 0.00 | 0.00 | 0.00 | 45 | 1004.0 |
| 20260508174549 | 7 | 278 | 17.7 | 25.7 | 0.00 | 0.00 | 0.00 | 46 | 1004.2 |
| 20260508174046 | 7 | 303 | 20.9 | 29.0 | 0.00 | 0.00 | 0.00 | 44 | 1004.1 |
| 20260508173543 | 7 | 298 | 16.1 | 20.9 | 0.00 | 0.00 | 0.00 | 45 | 1004.1 |
| 20260508173039 | 7 | 288 | 14.5 | 25.7 | 0.00 | 0.00 | 0.00 | 43 | 1004.1 |
| 20260508172536 | 7 | 266 | 12.9 | 25.7 | 0.00 | 0.00 | 0.00 | 44 | 1004.2 |
| 20260508172032 | 7 | 275 | 14.5 | 29.0 | 0.00 | 0.00 | 0.00 | 43 | 1004.1 |
| 20260508171529 | 7 | 290 | 17.7 | 30.6 | 0.00 | 0.00 | 0.00 | 42 | 1004.2 |
| 20260508171026 | 7 | 305 | 4.8 | 25.7 | 0.00 | 0.00 | 0.00 | 42 | 1004.1 |
| 20260508170523 | 7 | 288 | 9.7 | 19.3 | 0.00 | 0.00 | 0.00 | 44 | 1004.0 |
| 20260508170020 | 8 | 228 | 17.7 | 22.5 | 0.00 | 0.00 | 0.00 | 44 | 1003.9 |
| 20260508165518 | 8 | 292 | 9.7 | 17.7 | 0.00 | 0.00 | 0.00 | 44 | 1004.0 |
| 20260508165014 | 8 | 259 | 14.5 | 29.0 | 0.00 | 0.00 | 0.00 | 41 | 1004.0 |
| 20260508164511 | 8 | 295 | 29.0 | 32.2 | 0.00 | 0.00 | 0.00 | 43 | 1004.1 |
| 20260508164007 | 8 | 291 | 14.5 | 19.3 | 0.00 | 0.00 | 0.00 | 43 | 1003.8 |
| 20260508163505 | 8 | 253 | 9.7 | 25.7 | 0.00 | 0.00 | 0.00 | 44 | 1004.0 |
| 20260508163001 | 7 | 284 | 11.3 | 19.3 | 0.00 | 0.00 | 0.00 | 48 | 1004.1 |
| 20260508162458 | 7 | 274 | 16.1 | 24.1 | 0.00 | 0.00 | 0.00 | 48 | 1004.0 |
| 20260508161955 | 7 | 257 | 11.3 | 19.3 | 0.00 | 0.00 | 0.00 | 52 | 1004.1 |
| 20260508161452 | 7 | 265 | 9.7 | 17.7 | 0.00 | 0.00 | 0.00 | 51 | 1004.0 |
| 20260508160949 | 7 | 273 | 27.4 | 30.6 | 0.00 | 0.00 | 0.00 | 52 | 1003.9 |
| 20260508160448 | 7 | 246 | 6.4 | 11.3 | 0.00 | 0.00 | 0.00 | 53 | 1004.1 |
| 20260508155944 | 7 | 227 | 9.7 | 14.5 | 0.00 | 0.00 | 0.00 | 56 | 1004.1 |
| 20260508155441 | 7 | 244 | 11.3 | 24.1 | 0.00 | 0.00 | 0.00 | 54 | 1004.0 |
| 20260508154938 | 7 | 285 | 6.4 | 16.1 | 0.00 | 0.00 | 0.00 | 55 | 1004.2 |
| 20260508154436 | 7 | 252 | 8.0 | 19.3 | 0.00 | 0.00 | 0.00 | 55 | 1004.2 |
| 20260508153932 | 7 | 279 | 9.7 | 17.7 | 0.00 | 0.00 | 0.00 | 56 | 1004.0 |
| 20260508153429 | 7 | 276 | 22.5 | 27.4 | 0.00 | 0.00 | 0.00 | 54 | 1004.0 |
| 20260508152925 | 7 | 283 | 9.7 | 22.5 | 0.00 | 0.00 | 0.00 | 54 | 1004.0 |
| 20260508152422 | 8 | 230 | 29.0 | 32.2 | 0.00 | 0.00 | 0.00 | 54 | 1004.0 |
| 20260508151919 | 7 | 273 | 14.5 | 20.9 | 0.00 | 0.00 | 0.00 | 58 | 1004.2 |
| 20260508151415 | 7 | 241 | 20.9 | 32.2 | 0.00 | 0.00 | 0.00 | 57 | 1003.9 |
| 20260508150912 | 7 | 278 | 14.5 | 19.3 | 0.00 | 0.00 | 0.00 | 57 | 1003.9 |
| 20260508150408 | 6 | 298 | 17.7 | 19.3 | 0.00 | 0.00 | 0.00 | 59 | 1004.2 |
| 20260508145905 | 7 | 322 | 4.8 | 25.7 | 0.00 | 0.00 | 0.00 | 58 | 1004.0 |
| 20260508145401 | 6 | 324 | 8.0 | 20.9 | 0.00 | 0.00 | 0.00 | 60 | 1004.1 |
| 20260508144858 | 6 | 259 | 6.4 | 29.0 | 0.00 | 0.00 | 0.00 | 61 | 1003.9 |
| 20260508144356 | 6 | 296 | 27.4 | 27.4 | 0.00 | 0.00 | 0.00 | 64 | 1004.2 |
| 20260508143853 | 6 | 66 | 4.8 | 20.9 | 0.00 | 0.00 | 0.00 | 67 | 1004.1 |
| 20260508143350 | 6 | 324 | 8.0 | 37.0 | 0.00 | 0.00 | 0.00 | 63 | 1004.1 |
| 20260508142847 | 7 | 333 | 9.7 | 19.3 | 0.00 | 0.00 | 0.00 | 56 | 1003.8 |
| 20260508142344 | 7 | 277 | 9.7 | 17.7 | 0.00 | 0.00 | 0.00 | 56 | 1003.7 |
| 20260508141840 | 7 | 286 | 12.9 | 27.4 | 0.00 | 0.00 | 0.00 | 56 | 1003.9 |
| 20260508141337 | 7 | 267 | 12.9 | 16.1 | 0.00 | 0.00 | 0.00 | 54 | 1003.7 |
| 20260508140835 | 7 | 269 | 24.1 | 32.2 | 0.00 | 0.00 | 0.00 | 59 | 1003.9 |
| 20260508140331 | 7 | 285 | 17.7 | 20.9 | 0.00 | 0.00 | 0.00 | 57 | 1003.8 |
| 20260508135827 | 6 | 289 | 8.0 | 16.1 | 0.00 | 0.00 | 0.00 | 58 | 1003.9 |
| 20260508135324 | 6 | 260 | 11.3 | 17.7 | 0.00 | 0.00 | 0.00 | 59 | 1003.8 |
| 20260508134820 | 6 | 275 | 19.3 | 22.5 | 0.00 | 0.00 | 0.00 | 58 | 1003.9 |
| 20260508134317 | 6 | 272 | 6.4 | 16.1 | 0.00 | 0.00 | 0.00 | 58 | 1003.9 |
| 20260508133813 | 6 | 279 | 11.3 | 20.9 | 0.00 | 0.00 | 0.00 | 57 | 1003.8 |
| 20260508133311 | 6 | 331 | 8.0 | 14.5 | 0.00 | 0.00 | 0.00 | 58 | 1004.0 |
| 20260508132808 | 6 | 272 | 9.7 | 17.7 | 0.00 | 0.00 | 0.00 | 60 | 1003.6 |
| 20260508132306 | 6 | 250 | 17.7 | 20.9 | 0.00 | 0.00 | 0.00 | 58 | 1003.8 |
| 20260508131802 | 7 | 276 | 12.9 | 20.9 | 0.00 | 0.00 | 0.00 | 56 | 1004.0 |
| 20260508131258 | 7 | 280 | 16.1 | 22.5 | 0.00 | 0.00 | 0.00 | 56 | 1003.9 |
| 20260508130754 | 7 | 281 | 20.9 | 20.9 | 0.00 | 0.00 | 0.00 | 56 | 1003.9 |
| 20260508130252 | 7 | 283 | 9.7 | 27.4 | 0.00 | 0.00 | 0.00 | 54 | 1003.7 |
| 20260508125747 | 8 | 269 | 8.0 | 8.0 | 0.00 | 0.00 | 0.00 | 56 | 1003.6 |
| 20260508125244 | 7 | 344 | 11.3 | 22.5 | 0.00 | 0.00 | 0.00 | 55 | 1003.7 |
| 20260508124742 | 7 | 264 | 6.4 | 19.3 | 0.00 | 0.00 | 0.00 | 57 | 1003.7 |
| 20260508124239 | 7 | 279 | 17.7 | 30.6 | 0.00 | 0.00 | 0.00 | 56 | 1003.8 |
| 20260508123737 | 7 | 272 | 11.3 | 20.9 | 0.00 | 0.00 | 0.00 | 58 | 1003.8 |
| 20260508123235 | 7 | 83 | 4.8 | 17.7 | 0.00 | 0.00 | 0.00 | 57 | 1003.4 |
| 20260508122731 | 7 | 250 | 12.9 | 14.5 | 0.00 | 0.00 | 0.00 | 59 | 1003.7 |
| 20260508122228 | 6 | 301 | 6.4 | 17.7 | 0.00 | 0.00 | 0.00 | 59 | 1003.7 |
| 20260508121725 | 6 | 254 | 17.7 | 19.3 | 0.00 | 0.00 | 0.00 | 61 | 1003.6 |
| 20260508121224 | 6 | 245 | 6.4 | 19.3 | 0.00 | 0.00 | 0.00 | 60 | 1003.4 |
| 20260508120721 | 6 | 268 | 16.1 | 22.5 | 0.00 | 0.00 | 0.00 | 60 | 1003.4 |
| 20260508120219 | 6 | 249 | 16.1 | 16.1 | 0.00 | 0.00 | 0.00 | 60 | 1003.3 |
| 20260508115716 | 6 | 273 | 8.0 | 17.7 | 0.00 | 0.00 | 0.00 | 63 | 1003.7 |
| 20260508115213 | 6 | 280 | 8.0 | 20.9 | 0.00 | 0.00 | 0.00 | 62 | 1003.4 |
| 20260508114710 | 6 | 271 | 9.7 | 17.7 | 0.00 | 0.00 | 0.00 | 62 | 1003.6 |
| 20260508114207 | 5 | 260 | 11.3 | 12.9 | 0.00 | 0.00 | 0.00 | 63 | 1003.4 |
| 20260508113703 | 5 | 280 | 14.5 | 17.7 | 0.00 | 0.00 | 0.00 | 64 | 1003.6 |
| 20260508113202 | 5 | 263 | 8.0 | 14.5 | 0.00 | 0.00 | 0.00 | 66 | 1003.6 |
| 20260508112657 | 4 | 275 | 9.7 | 11.3 | 0.00 | 0.00 | 0.00 | 67 | 1003.3 |
| 20260508112154 | 4 | 258 | 6.4 | 11.3 | 0.00 | 0.00 | 0.00 | 66 | 1003.0 |
| 20260508111651 | 5 | 314 | 6.4 | 9.7 | 0.00 | 0.00 | 0.00 | 67 | 1003.2 |
| 20260508111149 | 5 | 266 | 8.0 | 17.7 | 0.00 | 0.00 | 0.00 | 68 | 1003.2 |
| 20260508110646 | 4 | 299 | 9.7 | 9.7 | 0.00 | 0.00 | 0.00 | 76 | 1003.3 |
| 20260508110142 | 4 | 273 | 9.7 | 9.7 | 0.00 | 0.00 | 0.00 | 79 | 1003.3 |
| 20260508105637 | 2 | 312 | 6.4 | 17.7 | 0.00 | 0.00 | 0.00 | 94 | 1003.2 |
| 20260508105135 | 1 | 35 | 3.2 | 6.4 | 0.00 | 0.00 | 0.00 | 97 | 1003.3 |
| 20260508104632 | 0 | 33 | 0.0 | 3.2 | 0.00 | 0.00 | 0.00 | 96 | 1003.3 |
| 20260508104129 | 0 | 1 | 0.0 | 3.2 | 0.00 | 0.00 | 0.00 | 96 | 1003.2 |
| 20260508103626 | 0 | 317 | 1.6 | 3.2 | 0.00 | 0.00 | 0.00 | 96 | 1002.9 |
| 20260508103123 | 0 | 306 | 0.0 | 1.6 | 0.00 | 0.00 | 0.00 | 96 | 1003.1 |
| 20260508102620 | -1 | 18 | 3.2 | 3.2 | 0.00 | 0.00 | 0.00 | 96 | 1003.0 |
| 20260508102118 | -1 | 44 | 0.0 | 3.2 | 0.00 | 0.00 | 0.00 | 96 | 1003.2 |
| 20260508101615 | -1 | 358 | 3.2 | 3.2 | 0.00 | 0.00 | 0.00 | 96 | 1002.8 |
| 20260508101112 | -1 | 11 | 1.6 | 3.2 | 0.00 | 0.00 | 0.00 | 97 | 1002.9 |
| 20260508100610 | -1 | 305 | 0.0 | 3.2 | 0.00 | 0.00 | 0.00 | 97 | 1003.0 |
| 20260508100107 | -2 | 304 | 0.0 | 3.2 | 0.00 | 0.00 | 0.00 | 97 | 1002.9 |
| 20260508095604 | -2 | 293 | 0.0 | 3.2 | 0.00 | 0.00 | 0.00 | 97 | 1002.7 |
| 20260508095101 | -2 | 338 | 1.6 | 3.2 | 0.00 | 0.00 | 0.00 | 97 | 1002.8 |
| 20260508094558 | -2 | 29 | 0.0 | 3.2 | 0.00 | 0.00 | 0.00 | 97 | 1002.7 |
| 20260508094055 | -2 | 338 | 0.0 | 3.2 | 0.00 | 0.00 | 0.00 | 97 | 1002.6 |